Погода в Иркутске

Погода в Иркутске : погода сейчас, прогноз погоды и архив. Всё, что Вы хотите узнать о погоде в Иркутске!

Поиск расширенной информации на нашем сайте:

Другие новости

Новости СМИ2

Главная страница сайта

Новости сайта

03.07.2017

Напоминаем, что на нашем специализированном сайте Метеоцентр.Азия вы можете получить высокодетализированные автоматические прогнозы погоды по пунктам России, СНГ и мира в авиационном формате (включающие направление и скорость ветра, видимость, явления погоды, количество и форму облачности, нижнюю и верхнюю границу облачности).

Рекомендуем: ТехноПоинт Иркутск

Погода в Иркутске - сегодня

Время (UTC), дата Ветер
(°,м/с) 
Видим.   Явления Облачность Т
(°С)
Тd
(°С)
f(%) Тe
(°С)
Pmin
(гПа)
dP
(гПа)
Po
(мм)
O2
(г/м3)
Тmin Tmax R s Состояние
почвы
09 18.06.18 140 (ЮВ) 20000 м    3/3 600 м 
[Cu hum]
+27.1 +5.6 25 +27  1010.1  -1.4  719  262           
12 18.06.18 180 (Ю) 20000 м    ясно 
+23.1 +5.3 32 +23  1010.4  -0.4  718  266    +27.1       
15 18.06.18 тихо ()   н/о    ясно 
+17.2 +6.5 49 +17  1011.9  0.4  719  271           
18 18.06.18 060 (СВ) н/о    н/о 
+12.9 +8.6 75 +14  1012.4  -0.3  718  275           
21 18.06.18 070 (В) 20000 м    1/0 верхняя 
[Ci fib]
+10.6 +7.7 82 +12  1012.4  -0.4  718  277           
00 19.06.18 130 (ЮВ) 20000 м    4/0 верхняя 
[Ci]
+16.4 +7.6 56 +17  1010.4  -0.9  717  271  +10.4        сухая 
03 19.06.18 130 (ЮВ) 20000 м    8/0 верхняя 
[Ci fib]
+24.4 +7.6 34 +24  1006.8  -1.9  716  263           
06 19.06.18 130 (ЮВ) 20000 м    9/1 1000 м верхняя 
[Cu hum|Ci fib]
+28.3 +7.6 27 +28  1003.8  -2.2  714  259           
09 19.06.18 140 (ЮВ) 20000 м    10/0 верхняя 
[Ci fib]
+28.6 +8.3 28 +29  1002  -1.7  713  259           
12 19.06.18 180 (Ю) 20000 м    10/0 верхняя 
[Ci fib]
+26.3 +8.4 32 +26  1001.9  -0.4  713  260    +29.5       
15 19.06.18 250 (З) н/о    10/1 600 м кучево-дожд., верхняя 
[Cb cap|Ci fib]
+17.8 +7.6 51 +19  1005  1.4  714  269           
18 19.06.18 130 (ЮВ) н/о    8/3 600 м кучево-дожд., верхняя 
[Cb cap|Ci fib]
+15 +6.1 55 +16  1005.3  -0.2  714  271           
21 19.06.18 130 (ЮВ) 20000 м    10/8 600 м кучево-дожд., средняя, верхняя 
[Cb cap|Ac trans|Ci fib]
+13.9 +6.1 59 +14  1004.2  -1.3  713  272           
00 20.06.18 120 (ЮВ) 20000 м    10/10 600 м кучево-дожд. 
[Cb cap]
+15 +7 59 +15  1003.9  -0.1  713  271  +13.9        сухая 
03 20.06.18 130 (ЮВ) 20000 м    8/3 1000 м средняя, верхняя 
[Sc diur, vesp|Ac trans|Ci fib]
+21.7 +8 41 +22  1002.4  -0.2  712  264           
06 20.06.18 140 (ЮВ) 20000 м  слаб. ливневой дождь  10/8 600 м кучево-дожд., верхняя 
[Cb cap|Ci fib]
+26.2 +12 41 +31  1001  -0.5  712  259           
09 20.06.18 140 (ЮВ) 20000 м  {ливн. осадки}  10/8 600 м кучево-дожд., средняя 
[Cb cap|Ac und]
+23.7 +11.2 45 +28  1002  0.5  712  262           
12 20.06.18 130 (ЮВ) 20000 м  слаб. ливневой дождь  10/10 600 м кучево-дожд. 
[Cb cap]
+18.2 +8.2 52 +19  1004.1  713  268    +27.1  0.0     
15 20.06.18 140 (ЮВ) н/о  {ливн. осадки}  10/8 600 м кучево-дожд., средняя 
[Cb cap|Ac und]
+16 +7.8 58 +17  1005.2  0.7  714  270           
18 20.06.18 070 (В) н/о  {ливн. осадки}  10/4 600 м кучево-дожд., средняя 
[Cb cap|Ac und]
+15.2 +8.3 63 +17  1005.3  -0.1  714  271           
21 20.06.18 130 (ЮВ) 20000 м  слаб. ливневой дождь  10/10 600 м кучево-дожд. 
[Cb cap]
+15.3 +11.4 78 +21  1005.9  0.7  714  270           
00 21.06.18 тихо ()   20000 м  {ливн. осадки}  10/10 600 м кучево-дожд. 
[Cb cap]
+17.3 +13.4 78 +25  1006.3  0.7  715  268  +14.9    0.0    влажная 
03 21.06.18 320 (СЗ) 20000 м  {ливн. осадки}  10/10 600 м кучево-дожд. 
[Cb cap]
+21.2 +15 68 +31  1005.6  0.1  715  264           
06 21.06.18 280 (З) 20000 м  {ливн. осадки}  10/10 600 м кучево-дожд. 
[Cb cap]
+20.5 +16 75 +32  1005.7  -0.1  715  264           
09 21.06.18 300 (СЗ) 20000 м    10/8 600 м кучево-дожд., средняя 
[Cb cap|Ac und]
+23.1 +16.3 66 +36  1004.2  -0.9  714  262           
Время (UTC), дата Ветер
(°,м/с) 
Видим.   Явления Облачность Т
(°С)
Тd
(°С)
f(%) Тe
(°С)
Pmin
(гПа)
dP
(гПа)
Po
(мм)
O2
(г/м3)
Тmin Tmax R s Состояние
почвы

Для получения пояснительной информации подведите курсор к названию столбца.

ПОГОДА в Иркутске - архив

Всё, что Вы хотите узнать о погоде в Иркутске - удобно и подробно!

Выберите нужную дату (начиная с 1 января 2015* года) и нажмите кнопку "Найти".
Будут отображены архивные сводки погоды по пункту Иркутск, начиная с указанной даты.


Отображать данные в формате CSV (для использования в таблицах Excel)


Внимание! Наш архив погоды предназначен исключительно для личного некоммерческого использования в познавательных целях. Если Вам необходимы официальные справки о состоянии погоды (для производственных, юридических, коммерческих и т.п. целей), обращайтесь в органы Росгидромета.

*Примечание: данная дата относится к архиву по метеостанциям СССР (Россия, СНГ, Балтия).
Архив по метеостанциям Зарубежной Европы и Азии (кроме Китая) хранится 10 дней, по другим регионам земного шара (Китай, Африка, Америка, Австралия, Океания) - 1 день.

Иркутск - район местоположения метеостанции


Название, широта, долгота, высота метеостанции:
Иркутск (город) 52.3°ш. 104.3°д. 485 м над ур. моря [Российская Федерация]

Дополнительная информация

В oтличие oт бoльшинства пoгoдных сайтoв мы публикуем пoдрoбную метеoинфoрмацию в детальнoм прoфессиoнальнoм фoрмате.

Характеристики температуры и влажнoсти вoздуха измеряются на высoте 2 м в тени вдали oт зданий и деревьев.
Скoрoсть ветра измеряется на высoте 10 м (на урoвне рoста челoвека скoрoсть ветра ниже в 1.5-2 раза). Если метеoстанция нахoдится в гoрoде или в лесу, тo скoрoсть ветра занижена на 2-4 м/с пo сравнению с oткрытым местoм. Скoрoсть ветра над акватoриями крупных рек и oзёр, а также на вершинах хoлмoв на 2-5 м/с выше, чем в oбычных услoвиях.
Атмoсфернoе давление в разных тoчках местнoсти мoжет значительнo oтличаться oт давления на метеoстанции, в зависимoсти oт услoвий рельефа (при пoдъёме на 10 м давление пoнижается примернo на 1 мм рт.ст.).